Weather in Fulda

Germany     50˚32′43″N   9˚40′30″E
temp.,
°C
wind,
m/s
gust,
m/s
humid.,
%
clouds,
%
prec.,
mm/h
press.,
hPa
HPBL,
m
29 november, sun
sun2901:00−3˚ne229244 0.0 102541
04:00−4˚ene11941 0.0 102629
07:00−4˚e11931 0.0 102633
10:00ene14750 0.0 1027368
13:00+3˚ene24610 0.0 1026620
16:00ne22780 0.0 102635
19:00−2˚e11900 0.0 102722
22:00−2˚ese11920 0.0 102822
30 november, mon
mon3001:00−3˚e11920 0.0 102821
04:00−3˚se11931 0.0 102721
07:00−3˚sse11920 0.0 102821
10:00−1˚ssw12800 0.0 1028145
13:00+2˚ssw23660 0.0 1027518
16:00−1˚ssw23820 0.0 102537
19:00−3˚s33910 0.0 102469
22:00−2˚s368646 0.0 1023200
1 december, tue
tue101:00−1˚s398273 0.0 1020363
04:00−1˚s4894100 1.6 1017316
07:00−1˚sse3596100 2.3 1016214
10:00se2391100 0.5 1016150
13:00+1˚se2391100 0.6 1016143
16:00+1˚e1293100 0.0 101642
19:00ese129599 0.0 101830
22:00ese119699 0.1 101925
2 december, wed
wed201:00−1˚ene119692 0.1 101921
04:00−2˚ne119542 0.0 101921
07:00−1˚ne119644 0.0 101930
10:00nne119041 0.0 1019102
13:00+2˚n228527 0.0 1017358
16:00−1˚nne129264 0.0 101621
19:00−3˚s119440 0.0 101621
22:00−2˚sw119276 0.0 1016118
3 december, thu
thu301:00−2˚wsw118888 0.0 101576
04:00−4˚s119336 0.0 101321
07:00−5˚sse119320 0.0 101221
10:00−3˚sse12821 0.0 1011171
13:00ssw01690 0.0 1009407
16:00−3˚ese11840 0.0 100624
19:00−4˚se12921 0.0 100527
22:00−4˚e11899 0.0 100422